Flag for Hungary Weather past 2 weeks in Sopron, Hungary

Now
40 °F

Chilly.


Feels Like: 40 °F
Forecast: 34 / 42 °F
Wind: 2 mph from Northwest

Location: Eisenstadt

Current Time: Mar 5, 2015 at 9:45:24 PM

Latest Report: Mar 5, 2015 at 9:00 PM


Visibility: N/A

Pressure: 30.46 "Hg

Humidity: 65%

Dew point: 29 °F

Location of SopronLocation

Historic Weather in Sopron — Graph

°F

Sopron temperature yesterday

Maximum temperature yesterday: 48 °F (at 4:00 PM)
Minimum temperature yesterday: 33 °F (at 2:00 AM)
Average temperature yesterday: 42 °F

Past Weeks' High & Low Weather Summary

 TemperatureHumidityPressure
High57 °F (Feb 21, 3:00 PM)100% (Feb 20, 10:00 AM)30.69 "Hg (Feb 20, 10:00 AM)
Low27 °F (Feb 20, 5:00 AM)30% (Feb 21, 12:00 PM)29.57 "Hg (Feb 21, 3:00 PM)
Average41 °F72%30.01 "Hg
* Reported Feb 18 8:00 PM — Mar 5 8:00 PM, Sopron, Weather by CustomWeather, © 2015

Note: Actual official high and low records may vary slightly from our data, if they occured in-between our weather recording intervals... More about our weather records

Advertising

Sopron weather history for previous 24 hours

 ConditionsComfort  
Time TempWeatherWind HumidityBarometerVisibility
8:00 PM
Thu, Mar 5
41 °FQuite cool.3 mph61%30.45 "HgN/A
7:00 PM41 °FOvercast.3 mph60%30.43 "Hg9 mi
6:00 PM41 °FQuite cool.2 mph60%30.40 "HgN/A
5:00 PM43 °FQuite cool.5 mph55%30.39 "HgN/A
4:00 PM43 °FRain. Overcast.6 mph61%30.37 "Hg9 mi
3:00 PM42 °FQuite cool.5 mph63%30.37 "HgN/A
2:00 PM45 °FQuite cool.2 mph54%30.37 "HgN/A
1:00 PM45 °FOvercast.5 mph50%30.38 "Hg12 mi
12:00 PM44 °FQuite cool.3 mph54%30.39 "HgN/A
11:00 AM44 °FQuite cool.7 mph54%30.39 "HgN/A
10:00 AM43 °FScattered clouds.6 mph53%30.39 "Hg12 mi
9:00 AM43 °FQuite cool.3 mph57%30.39 "HgN/A
8:00 AM40 °FChilly.2 mph65%30.40 "HgN/A
7:00 AM36 °FChilly.3 mph72%30.39 "HgN/A
6:00 AM34 °FPassing clouds.2 mph76%30.38 "Hg9 mi
5:00 AM36 °FOvercast.1 mph71%30.37 "Hg9 mi
4:00 AM36 °FOvercast.2 mph70%30.36 "Hg9 mi
2:00 AM39 °FChilly.1 mph66%30.36 "HgN/A
1:00 AM39 °FPassing clouds.1 mph65%30.34 "Hg9 mi
12:00 AM40 °FQuite cool.5 mph63%30.33 "HgN/A
11:00 PM
Wed, Mar 4
40 °FChilly.3 mph64%30.34 "HgN/A
9:00 PM40 °FChilly.3 mph64%30.31 "HgN/A
Weather by CustomWeather, © 2015

See weather overviewHow to use our weather pages